Tracking 20369 objects as of 17-Feb-2020
HD Live streaming from Space Station
objects crossing your sky now

COSMOS 249 DEB

Track COSMOS 249 DEB now!
10-day predictions


NORAD ID: 3509
Int'l Code: 1968-091F
Perigee: 477.1 km
Apogee: 931.2 km
Inclination: 62.4 °
Period: 98.7 minutes
Semi major axis: 7075 km
RCS: 0.036 m2 (small)
Launch date: October 20, 1968
Source: Commonwealth of Independent States (former USSR) (CIS)
Launch site: TYURATAM MISSILE AND SPACE COMPLEX (TTMTR)

Note: This is SATELLITE DEBRIS
aabbcc
Your satellite tracking list
Your tracking list is empty




NASA's NSSDC Master Catalog

Two Line Element Set (TLE):
1  3509U 68091F   20048.43578550 +.00000406 +00000-0 +64343-4 0  9996
2  3509 062.3676 164.7746 0320952 291.3873 065.3238 14.58814990565134
Source of the keplerian elements: AFSPC